STARLINK-11547 [DTC] (62587 NORAD) Tracking and Keplerian Element Data

This shows tracking and keplerian element data for the satellite.

Feedback or suggestion? Click here.




ElementValue
Catalog62587
NameSTARLINK-11547 [DTC]
Epoch Orbit5359
Epoch Day354.09465359
Epoch Year2025
RAAN246.1493
Inclination42.999
Eccentricity0.0001944
Argument of Perigee264.1602
Mean Anonmoly95.9044
Mean Motion15.70964645
Decay Rate0.0014425
L11 62587U 25008A 25354.09465359 .00144250 00000+0 11025-2 0 9999
L22 62587 42.9990 246.1493 0001944 264.1602 95.9044 15.70964645 53591



Live tracking and technical data element details for STARLINK-11547 [DTC] (NORAD 62587). STARLINK-11547 [DTC] can be tracked NOW for your location showing map with azimuth and elevation plus other details from your city location.







IsCatalogInMostPopularTable: catalog: 62587, numindb: 73
Update: records affected: 1



GetName: 62587 STARLINK-11547 [DTC]

Hit Count: updated at: Sun, 08 Feb 2026 17:18:57 GMT